MAU292 FIMP-FMEE

Flight info

Callsign MAU292
Flight time 0h 33m
Altitude 20000
Route SOBAT2A SOBAT SOBAT2R
Aircraft A332/H-SDE3GHIJ2J3J5M1RVWXY/LB2D1

Departure

Time 2026-04-29 10:26
Airport Sir Seewoosagur Ramgoolam International Airport (FIMP)

Arrival

Time 2026-04-29 10:59
Airport Roland Garros Airport (FMEE)
Time Latitude Longitude Altitude Speed Heading
2026-04-29 10:04 -20.43066 57.67643 190 ft 0 kts 207°
2026-04-29 10:18 -20.43064 57.67644 190 ft 2 kts 207°
2026-04-29 10:18 -20.43050 57.67652 205 ft 2 kts 209°
2026-04-29 10:19 -20.43036 57.67662 202 ft 2 kts 219°
2026-04-29 10:19 -20.43025 57.67672 205 ft 2 kts 224°
2026-04-29 10:19 -20.43014 57.67685 205 ft 2 kts 231°
2026-04-29 10:19 -20.43004 57.67699 205 ft 2 kts 242°
2026-04-29 10:20 -20.42999 57.67714 205 ft 1 kts 267°
2026-04-29 10:20 -20.42998 57.67720 205 ft 0 kts 285°
2026-04-29 10:22 -20.42995 57.67714 205 ft 4 kts 292°
2026-04-29 10:23 -20.42975 57.67676 205 ft 7 kts 303°
2026-04-29 10:23 -20.42919 57.67632 202 ft 11 kts 330°
2026-04-29 10:23 -20.42858 57.67590 202 ft 12 kts 325°
2026-04-29 10:23 -20.42794 57.67541 206 ft 11 kts 323°
2026-04-29 10:24 -20.42762 57.67516 201 ft 0 kts 324°
2026-04-29 10:24 -20.42757 57.67512 198 ft 4 kts 324°
2026-04-29 10:24 -20.42710 57.67485 204 ft 11 kts 338°
2026-04-29 10:25 -20.42644 57.67478 207 ft 8 kts 26°
2026-04-29 10:25 -20.42623 57.67518 200 ft 6 kts 91°
2026-04-29 10:25 -20.42635 57.67545 206 ft 0 kts 117°
2026-04-29 10:25 -20.42642 57.67560 200 ft 4 kts 117°
2026-04-29 10:26 -20.42689 57.67659 207 ft 38 kts 117°
2026-04-29 10:26 -20.42935 57.68173 193 ft 117 kts 116°
2026-04-29 10:26 -20.43358 57.69046 232 ft 178 kts 115°
2026-04-29 10:26 -20.43973 57.70303 1035 ft 198 kts 112°
2026-04-29 10:27 -20.45262 57.72932 2791 ft 196 kts 115°
2026-04-29 10:27 -20.46144 57.74016 3624 ft 199 kts 148°
2026-04-29 10:27 -20.47541 57.74158 4176 ft 215 kts 195°
2026-04-29 10:28 -20.48872 57.73363 4744 ft 226 kts 222°
2026-04-29 10:28 -20.49999 57.72146 5197 ft 241 kts 227°
2026-04-29 10:28 -20.51183 57.70764 5658 ft 257 kts 229°
2026-04-29 10:28 -20.52376 57.69283 6113 ft 269 kts 232°
2026-04-29 10:29 -20.53573 57.67684 6578 ft 281 kts 232°
2026-04-29 10:29 -20.54792 57.66052 7248 ft 287 kts 232°
2026-04-29 10:29 -20.55900 57.64585 8014 ft 287 kts 231°
2026-04-29 10:29 -20.57163 57.62923 8860 ft 289 kts 231°
2026-04-29 10:30 -20.58435 57.61257 9550 ft 291 kts 231°
2026-04-29 10:30 -20.59723 57.59573 9913 ft 294 kts 231°
2026-04-29 10:30 -20.60974 57.57940 9980 ft 295 kts 231°
2026-04-29 10:30 -20.62286 57.56229 10003 ft 309 kts 230°
2026-04-29 10:31 -20.63635 57.54308 9986 ft 334 kts 241°
2026-04-29 10:31 -20.64262 57.51988 10034 ft 319 kts 270°
2026-04-29 10:31 -20.64004 57.49973 10420 ft 303 kts 283°
2026-04-29 10:31 -20.63498 57.47771 10758 ft 311 kts 284°
2026-04-29 10:32 -20.62955 57.45455 11043 ft 332 kts 283°
2026-04-29 10:32 -20.62406 57.43006 11485 ft 345 kts 283°
2026-04-29 10:32 -20.62013 57.40752 12025 ft 351 kts 274°
2026-04-29 10:32 -20.62045 57.38132 12708 ft 355 kts 265°
2026-04-29 10:33 -20.62265 57.35495 13409 ft 359 kts 264°
2026-04-29 10:33 -20.62517 57.32824 14063 ft 363 kts 264°
2026-04-29 10:33 -20.62772 57.30132 14665 ft 367 kts 264°
2026-04-29 10:33 -20.63025 57.27406 15264 ft 371 kts 263°
2026-04-29 10:34 -20.63276 57.24656 15862 ft 374 kts 263°
2026-04-29 10:34 -20.63528 57.21878 16464 ft 378 kts 263°
2026-04-29 10:34 -20.63752 57.19397 16979 ft 381 kts 263°
2026-04-29 10:34 -20.64007 57.16566 17576 ft 385 kts 263°
2026-04-29 10:35 -20.64262 57.13716 18147 ft 388 kts 263°
2026-04-29 10:35 -20.64520 57.10831 18649 ft 392 kts 262°
2026-04-29 10:35 -20.64757 57.08182 19120 ft 394 kts 262°
2026-04-29 10:35 -20.65016 57.05262 19596 ft 396 kts 262°
2026-04-29 10:36 -20.65277 57.02329 19899 ft 398 kts 262°
2026-04-29 10:36 -20.65533 56.99427 19975 ft 388 kts 262°
2026-04-29 10:36 -20.65793 56.96497 19985 ft 405 kts 262°
2026-04-29 10:36 -20.66062 56.93482 19978 ft 421 kts 263°
2026-04-29 10:37 -20.66345 56.90286 19976 ft 431 kts 263°
2026-04-29 10:37 -20.66621 56.87136 19976 ft 432 kts 263°
2026-04-29 10:37 -20.66900 56.83942 19973 ft 432 kts 263°
2026-04-29 10:37 -20.67179 56.80744 19976 ft 432 kts 263°
2026-04-29 10:38 -20.67457 56.77551 19977 ft 432 kts 263°
2026-04-29 10:38 -20.67735 56.74358 19977 ft 432 kts 263°
2026-04-29 10:38 -20.67981 56.71532 19976 ft 432 kts 263°
2026-04-29 10:38 -20.68259 56.68327 19977 ft 432 kts 263°
2026-04-29 10:39 -20.68536 56.65130 19974 ft 432 kts 263°
2026-04-29 10:39 -20.68812 56.61938 19974 ft 432 kts 263°
2026-04-29 10:39 -20.68995 56.59815 19974 ft 432 kts 263°
2026-04-29 10:39 -20.69329 56.55937 19974 ft 432 kts 263°
2026-04-29 10:40 -20.69604 56.52740 19975 ft 432 kts 263°
2026-04-29 10:40 -20.69878 56.49540 19974 ft 433 kts 263°
2026-04-29 10:40 -20.70152 56.46341 19972 ft 433 kts 263°
2026-04-29 10:40 -20.70393 56.43511 19973 ft 432 kts 263°
2026-04-29 10:41 -20.70665 56.40317 19977 ft 431 kts 263°
2026-04-29 10:41 -20.70936 56.37130 19976 ft 431 kts 263°
2026-04-29 10:41 -20.71207 56.33940 19932 ft 431 kts 263°
2026-04-29 10:41 -20.71476 56.30754 19476 ft 430 kts 263°
2026-04-29 10:42 -20.71737 56.27577 18747 ft 431 kts 264°
2026-04-29 10:42 -20.71787 56.24377 18209 ft 428 kts 268°
2026-04-29 10:42 -20.71724 56.21242 17844 ft 417 kts 269°
2026-04-29 10:42 -20.71647 56.18160 17319 ft 411 kts 269°
2026-04-29 10:43 -20.71572 56.15128 16755 ft 407 kts 270°
2026-04-29 10:43 -20.71497 56.12116 16171 ft 404 kts 270°
2026-04-29 10:43 -20.71424 56.09135 15600 ft 400 kts 270°
2026-04-29 10:43 -20.71352 56.06176 15016 ft 398 kts 271°
2026-04-29 10:44 -20.71280 56.03229 14435 ft 395 kts 270°
2026-04-29 10:44 -20.71209 56.00357 14051 ft 388 kts 271°
2026-04-29 10:44 -20.71139 55.97489 13494 ft 385 kts 271°
2026-04-29 10:44 -20.71076 55.94976 13044 ft 380 kts 271°
2026-04-29 10:45 -20.71005 55.92178 12580 ft 374 kts 271°
2026-04-29 10:45 -20.70936 55.89422 12117 ft 368 kts 271°
2026-04-29 10:45 -20.70867 55.86708 11674 ft 363 kts 271°
2026-04-29 10:45 -20.70804 55.84240 11312 ft 356 kts 271°
2026-04-29 10:46 -20.70736 55.81616 10925 ft 350 kts 271°
2026-04-29 10:46 -20.70670 55.79068 10813 ft 335 kts 271°
2026-04-29 10:46 -20.70608 55.76653 10682 ft 315 kts 271°
2026-04-29 10:46 -20.70548 55.74393 10533 ft 295 kts 271°
2026-04-29 10:47 -20.70492 55.72261 10416 ft 280 kts 271°
2026-04-29 10:47 -20.70456 55.70898 10294 ft 275 kts 271°
2026-04-29 10:47 -20.70402 55.68851 9986 ft 276 kts 271°
2026-04-29 10:47 -20.70354 55.67030 9681 ft 276 kts 271°
2026-04-29 10:48 -20.70299 55.64984 9363 ft 275 kts 271°
2026-04-29 10:48 -20.70231 55.62955 9067 ft 273 kts 272°
2026-04-29 10:48 -20.70157 55.60940 8766 ft 271 kts 272°
2026-04-29 10:48 -20.70091 55.59156 8491 ft 270 kts 272°
2026-04-29 10:49 -20.70016 55.57156 8196 ft 269 kts 272°
2026-04-29 10:49 -20.69942 55.55163 7888 ft 268 kts 272°
2026-04-29 10:49 -20.69867 55.53180 7594 ft 267 kts 272°
2026-04-29 10:49 -20.69799 55.51365 7317 ft 266 kts 272°
2026-04-29 10:50 -20.69727 55.49444 7027 ft 267 kts 272°
2026-04-29 10:50 -20.69652 55.47463 6719 ft 267 kts 272°
2026-04-29 10:50 -20.69576 55.45481 6412 ft 267 kts 272°
2026-04-29 10:50 -20.69501 55.43497 6094 ft 268 kts 272°
2026-04-29 10:51 -20.69434 55.41740 5820 ft 268 kts 272°
2026-04-29 10:51 -20.69357 55.39747 5509 ft 268 kts 272°
2026-04-29 10:51 -20.69281 55.37765 5259 ft 265 kts 272°
2026-04-29 10:51 -20.69207 55.35835 5175 ft 255 kts 272°
2026-04-29 10:52 -20.69136 55.33982 5068 ft 246 kts 272°
2026-04-29 10:52 -20.69089 55.32181 4960 ft 240 kts 268°
2026-04-29 10:52 -20.69456 55.30461 4708 ft 240 kts 242°
2026-04-29 10:52 -20.70554 55.29150 4429 ft 239 kts 211°
2026-04-29 10:53 -20.72095 55.28574 4156 ft 235 kts 189°
2026-04-29 10:53 -20.73706 55.28350 3887 ft 232 kts 185°
2026-04-29 10:53 -20.75307 55.28183 3642 ft 231 kts 183°
2026-04-29 10:53 -20.76897 55.28270 3368 ft 228 kts 162°
2026-04-29 10:54 -20.78125 55.28952 3142 ft 225 kts 136°
2026-04-29 10:54 -20.79053 55.30295 3018 ft 223 kts 117°
2026-04-29 10:54 -20.79733 55.31713 2994 ft 207 kts 115°
2026-04-29 10:54 -20.80341 55.33052 2990 ft 194 kts 114°
2026-04-29 10:55 -20.80856 55.34188 2989 ft 185 kts 114°
2026-04-29 10:55 -20.81418 55.35416 2990 ft 184 kts 114°
2026-04-29 10:55 -20.82039 55.36597 2806 ft 182 kts 114°
2026-04-29 10:55 -20.82543 55.37820 2523 ft 182 kts 114°
2026-04-29 10:56 -20.83053 55.38868 2310 ft 176 kts 116°
2026-04-29 10:56 -20.83582 55.40001 2076 ft 164 kts 114°
2026-04-29 10:56 -20.84053 55.41064 1853 ft 153 kts 114°
2026-04-29 10:56 -20.84516 55.42036 1625 ft 141 kts 116°
2026-04-29 10:57 -20.84973 55.42955 1418 ft 139 kts 115°
2026-04-29 10:57 -20.85395 55.43871 1306 ft 137 kts 113°
2026-04-29 10:57 -20.85814 55.44784 1172 ft 136 kts 114°
2026-04-29 10:57 -20.86231 55.45685 1018 ft 135 kts 112°
2026-04-29 10:58 -20.86602 55.46484 912 ft 137 kts 112°
2026-04-29 10:58 -20.87021 55.47405 763 ft 138 kts 113°
2026-04-29 10:58 -20.87452 55.48327 571 ft 138 kts 114°
2026-04-29 10:58 -20.87861 55.49238 310 ft 134 kts 115°
2026-04-29 10:59 -20.88262 55.50084 171 ft 137 kts 114°
2026-04-29 10:59 -20.88691 55.50981 64 ft 130 kts 112°
2026-04-29 10:59 -20.89043 55.51745 60 ft 90 kts 116°
2026-04-29 10:59 -20.89221 55.52123 64 ft 32 kts 117°
2026-04-29 11:00 -20.89310 55.52211 67 ft 13 kts 175°
2026-04-29 11:00 -20.89370 55.52190 87 ft 8 kts 207°
2026-04-29 11:00 -20.89406 55.52152 95 ft 9 kts 251°
2026-04-29 11:00 -20.89384 55.52074 93 ft 13 kts 300°
2026-04-29 11:01 -20.89340 55.51984 91 ft 15 kts 297°
2026-04-29 11:01 -20.89291 55.51879 90 ft 17 kts 297°
2026-04-29 11:01 -20.89236 55.51761 91 ft 19 kts 296°
2026-04-29 11:01 -20.89178 55.51637 91 ft 17 kts 297°
2026-04-29 11:02 -20.89128 55.51532 88 ft 17 kts 296°
2026-04-29 11:02 -20.89073 55.51415 67 ft 18 kts 297°
2026-04-29 11:02 -20.89069 55.51322 69 ft 7 kts 236°
2026-04-29 11:02 -20.89098 55.51301 70 ft 2 kts 213°
2026-04-29 11:03 -20.89103 55.51298 70 ft 0 kts 212°